COSMOS 764

Satellite information

Favourite Embed

Satellite Type and Status

PAYLOADIN ORBIT

Key statistics

Satellite COSMOS 764 at a glance.

Uptime

18306

Days in orbit

Revolutions

≈ 12.4

Per day

Orbit

LEO

Low Earth Orbit

Inclination

74.0

Latest

Satellite identification and parameters

Extended collection of information and parameters for COSMOS 764.

Object identification

Identified? True

Debris? False

Object name: COSMOS 764

International designator: 1975-086D

Object number (NORAD): 8288

Object ID (CCSDS): 8288

Country: COMMONWEALTH OF INDEPENDENT STATES (CIS)

Current information (Y/N): Y

RCS size: MEDIUM

Orbital parameters

Period: 116.027 minutes

Inclination: 74.0071 deg

SMA: 7880.137 km

Apoapsis: 1526.261 km

Periapsis: 1477.743 km

RAAN: 285.3989 deg

Eccentricy: 0.0030785

Argument of periapsis: 237.4987 deg

Mean anomaly: 239.5458 deg

Mean motion: 12.4108673 rev/day

Mean motion (dot): 0.00000006 rev/day2

B* drag term: 0.00015769488 1/REarth

Two-line elements (TLE)

Creation date: Oct. 28, 2025, 7:11 p.m.

Reference frame: TEME

Reference center: EARTH

Epoch: Oct. 28, 2025, 10:45 a.m. UTC

TLE line 0: 0 COSMOS 764

TLE line 1: 1 08288U 75086D 25301.44817329 .00000006 00000-0 15769-3 0 9998

TLE line 2: 2 08288 74.0071 285.3989 0030785 237.4987 239.5458 12.41086730270494

Live tracking on map

Real-time ground track for satellite COSMOS 764.

In-orbit conjunctions

A list of the most updated potential collisions computed for object COSMOS 764.

Target Orbit TCA Probability of collision Miss distance Type
SL-8 DEB LEO 2025-08-11 06:21:04 0.0001743121 277.0 (m) DEBRIS

Associated space launch

Military communications satellites

COSMOS 764 was lifted into orbit during the mission ‘Kosmos-3M | Strela-1M 97-104’, on board a Kosmos-3M space rocket.

The launch took place on Sept. 17, 1975, 7:10 a.m. from 132/1 (132L).

For more information about the launch, click the button.

Launch to space Kosmos-3M | Strela-1M 97-104
Kosmos-3M | Strela-1M 97-104

Agency: N/A

Status: Launch Successful

Launch date: Sept. 17, 1975, 7:10 a.m. UTC

Rocket: Kosmos-3M

Launch pad: 132/1 (132L)

Location: Plesetsk Cosmodrome, Russian Federation

...

Latest news about this satellite

There are no fresh news available about this satellite. Check back as we update our databases every day.


Newsletter sign-up

Weekly statistics, charts and insights to help you stay on top of the space industry.